Flag for United Arab Emirates Weather past 2 weeks in Ras al-Khaimah, Ras al-Khaimah, United Arab Emirates

Now
59 °F

Clear.


Feels Like: 59 °F
Forecast: 61 / 77 °F
Wind: No wind

Location: Ras Al Khaimah International Airport

Current Time: Dec 21, 2014 at 10:17:35 PM

Latest Report: Dec 21, 2014 at 10:00 PM


Visibility: 10 mi

Pressure: 30.01 "Hg

Humidity: 77%

Dew point: 52 °F

Location of Ras al-KhaimahLocation

Historic Weather in Ras al-Khaimah — Graph

°F

Ras al-Khaimah temperature yesterday

Maximum temperature yesterday: 81 °F (at 1:00 PM)
Minimum temperature yesterday: 52 °F (at 6:00 AM)
Average temperature yesterday: 66 °F

Past Weeks' High & Low Weather Summary

 TemperatureHumidityPressure
High86 °F (Dec 8, 1:00 PM)100% (Dec 13, 4:00 AM)30.21 "Hg (Dec 13, 4:00 AM)
Low46 °F (Dec 15, 6:00 AM)14% (Dec 15, 2:00 PM)29.92 "Hg (Dec 21, 4:00 PM)
Average67 °F59%30.09 "Hg
* Reported Dec 6 9:00 PM — Dec 21 9:00 PM, Ras al-Khaimah, Weather by CustomWeather, © 2014

Note: Actual official high and low records may vary slightly from our data, if they occured in-between our weather recording intervals... More about our weather records

Advertising

Ras al-Khaimah weather history for previous 24 hours

 ConditionsComfort  
Time TempWeatherWind HumidityBarometerVisibility
9:00 PM
Dec 21
64 °FClear.5 mph73%30.01 "Hg10 mi
8:00 PM66 °FClear.2 mph73%30.01 "Hg10 mi
7:00 PM68 °FClear.No wind69%29.98 "Hg10 mi
6:00 PM70 °FClear.6 mph64%29.95 "Hg10 mi
5:00 PM72 °FSunny.12 mph61%29.95 "Hg10 mi
4:00 PM75 °FSunny.10 mph50%29.92 "Hg10 mi
3:00 PM77 °FSunny.6 mph42%29.95 "Hg10 mi
2:00 PM79 °FPassing clouds.7 mph42%29.95 "HgN/A
1:00 PM77 °FPassing clouds.6 mph44%29.98 "HgN/A
12:00 PM75 °FPassing clouds.6 mph50%30.04 "HgN/A
11:00 AM73 °FSunny.7 mph57%30.07 "Hg10 mi
10:00 AM70 °FPassing clouds.7 mph73%30.09 "HgN/A
9:00 AM66 °FHaze.9 mph83%30.07 "Hg2 mi
8:00 AM59 °FFog.5 mph100%30.07 "Hg2 mi
7:00 AM57 °FHaze.5 mph94%30.04 "Hg2 mi
6:00 AM57 °FHaze.3 mph94%30.04 "Hg3 mi
5:00 AM57 °FHaze.5 mph94%30.04 "Hg3 mi
4:00 AM59 °FClear.6 mph94%30.04 "Hg4 mi
3:00 AM59 °FClear.6 mph94%30.04 "Hg4 mi
2:00 AM59 °FClear.5 mph94%30.04 "Hg4 mi
1:00 AM61 °FClear.5 mph83%30.04 "Hg5 mi
12:00 AM59 °FClear.2 mph88%30.07 "Hg5 mi
11:00 PM
Dec 20
61 °FClear.2 mph88%30.07 "Hg5 mi
10:00 PM63 °FClear.No wind88%30.09 "Hg10 mi
Weather by CustomWeather, © 2014

See weather overviewHow to use our weather pages